When you browse on this site, cookies collect data to enhance your experience and personalize the content and advertising you see.
Visit our Privacy Policy to learn more. By continuing to use the site, you agree to this use of cookies and data.
  • In Latvia
  • List of Countries
  • For 7 days
  • Water Temperature
  • Satellite Maps
  • Weather Map
  • Weather Widgets
  • user-avatar
    Login

    Hourly Weather Alterau

    Today, 15 December, Saturday

    Time Temperature Precipitation Wind Pressure Humidity
    00:00 -3°C° 0 mm 1 mps 726 mmHg 83%
    01:00 -3°C° 0 mm 1 mps 726 mmHg 82%
    02:00 -3°C° 0 mm 1 mps 726 mmHg 82%
    03:00 -3°C° 0 mm 1 mps 726 mmHg 82%
    04:00 -3°C° 0 mm 1 mps 726 mmHg 82%
    05:00 -3°C° 0 mm 1 mps 726 mmHg 82%
    06:00 -3°C° 0 mm 1 mps 726 mmHg 81%
    07:00 -3°C° 0 mm 1 mps 727 mmHg 81%
    08:00 -3°C° 0 mm 1 mps 727 mmHg 76%
    09:00 -2°C° 0 mm 1 mps 727 mmHg 71%
    10:00 -1°C° 0 mm 1 mps 726 mmHg 66%
    11:00 0°C° 0 mm 1 mps 726 mmHg 60%
    12:00 +1°C° 0 mm 1 mps 726 mmHg 53%
    13:00 +3°C° 0 mm 1 mps 725 mmHg 47%
    14:00 +2°C° 0 mm 1 mps 725 mmHg 50%
    15:00 +1°C° 0 mm 1 mps 725 mmHg 53%
    16:00 +1°C° 0 mm 1 mps 725 mmHg 56%
    17:00 0°C° 0 mm 1 mps 725 mmHg 59%
    18:00 -1°C° 0 mm 1 mps 725 mmHg 61%
    19:00 -2°C° 0 mm 1 mps 725 mmHg 64%
    20:00 -2°C° 0 mm 1 mps 724 mmHg 63%
    21:00 -2°C° 0 mm 1 mps 724 mmHg 62%
    22:00 -2°C° 0 mm 1 mps 723 mmHg 61%
    23:00 -1°C° 0 mm 1 mps 723 mmHg 60%

    Tomorrow, 16 December, Sunday

    Time Temperature Precipitation Wind Pressure Humidity
    00:00 0°C° 0 mm 1 mps 722 mmHg 59%
    01:00 +1°C° 0 mm 1 mps 722 mmHg 58%
    02:00 +1°C° 0.8 mm 1 mps 721 mmHg 69%
    03:00 +1°C° 0.8 mm 1 mps 721 mmHg 80%
    04:00 -1°C° 0.8 mm 2 mps 720 mmHg 91%
    05:00 -1°C° 1 mm 2 mps 720 mmHg 92%
    06:00 +2°C° 1 mm 1 mps 721 mmHg 92%
    07:00 +3°C° 1 mm 1 mps 721 mmHg 93%
    08:00 +3°C° 0.1 mm 1 mps 721 mmHg 94%
    09:00 +4°C° 0.1 mm 1 mps 721 mmHg 94%
    10:00 +4°C° 0.1 mm 2 mps 721 mmHg 95%
    11:00 +5°C° 0.1 mm 1 mps 721 mmHg 94%
    12:00 +6°C° 0.1 mm 1 mps 721 mmHg 94%
    13:00 +6°C° 0.1 mm 1 mps 721 mmHg 94%
    14:00 +6°C° 0.1 mm 1 mps 721 mmHg 95%
    15:00 +5°C° 0.1 mm 1 mps 721 mmHg 95%
    16:00 +5°C° 0.1 mm 1 mps 721 mmHg 96%
    17:00 +4°C° 0.1 mm 1 mps 721 mmHg 96%
    18:00 +4°C° 0.1 mm 1 mps 721 mmHg 96%
    19:00 +4°C° 0.1 mm 1 mps 721 mmHg 96%
    20:00 +4°C° 0 mm 1 mps 722 mmHg 95%
    21:00 +3°C° 0 mm 1 mps 722 mmHg 95%
    22:00 +3°C° 0 mm 1 mps 722 mmHg 95%
    23:00 +3°C° 0 mm 1 mps 722 mmHg 94%

    Day after tomorrow, 17 December, Monday

    Time Temperature Precipitation Wind Pressure Humidity
    00:00 +2°C° 0 mm 0 mps 722 mmHg 94%
    01:00 +2°C° 0 mm 0 mps 722 mmHg 94%
    02:00 +2°C° 0 mm 0 mps 722 mmHg 93%
    03:00 +1°C° 0 mm 0 mps 722 mmHg 93%
    04:00 +1°C° 0 mm 0 mps 722 mmHg 93%
    05:00 +1°C° 0 mm 0 mps 723 mmHg 93%
    06:00 +1°C° 0 mm 0 mps 723 mmHg 93%
    07:00 +2°C° 0 mm 1 mps 724 mmHg 94%
    08:00 +2°C° 0 mm 1 mps 724 mmHg 93%
    09:00 +3°C° 0 mm 1 mps 724 mmHg 92%
    10:00 +4°C° 0 mm 1 mps 725 mmHg 92%
    11:00 +5°C° 0 mm 1 mps 725 mmHg 90%
    12:00 +5°C° 0 mm 1 mps 725 mmHg 88%
    13:00 +6°C° 0 mm 1 mps 725 mmHg 86%
    14:00 +6°C° 0 mm 1 mps 726 mmHg 89%
    15:00 +5°C° 0 mm 1 mps 726 mmHg 91%
    16:00 +5°C° 0 mm 1 mps 727 mmHg 93%
    17:00 +4°C° 0.1 mm 2 mps 727 mmHg 93%
    18:00 +4°C° 0.1 mm 2 mps 728 mmHg 94%
    19:00 +3°C° 0.1 mm 2 mps 729 mmHg 94%
    20:00 +3°C° 0 mm 2 mps 729 mmHg 94%
    21:00 +3°C° 0 mm 2 mps 730 mmHg 94%
    22:00 +3°C° 0 mm 2 mps 730 mmHg 94%
    23:00 +2°C° 0 mm 2 mps 730 mmHg 93%

    18 December, Tuesday

    Time Temperature Precipitation Wind Pressure Humidity
    00:00 +2°C° 0 mm 1 mps 730 mmHg 93%
    01:00 +1°C° 0 mm 1 mps 730 mmHg 93%
    02:00 +1°C° 0 mm 1 mps 730 mmHg 92%
    03:00 +1°C° 0 mm 1 mps 730 mmHg 92%
    04:00 0°C° 0 mm 1 mps 730 mmHg 91%
    05:00 0°C° 0 mm 1 mps 730 mmHg 90%
    06:00 0°C° 0 mm 1 mps 729 mmHg 89%
    07:00 0°C° 0 mm 1 mps 729 mmHg 89%
    08:00 +1°C° 0 mm 1 mps 729 mmHg 87%
    09:00 +2°C° 0 mm 1 mps 729 mmHg 85%
    10:00 +3°C° 0 mm 1 mps 729 mmHg 84%
    11:00 +4°C° 0 mm 1 mps 728 mmHg 82%
    12:00 +5°C° 0 mm 1 mps 727 mmHg 80%
    13:00 +6°C° 0 mm 1 mps 726 mmHg 78%
    14:00 +5°C° 0 mm 1 mps 726 mmHg 80%
    15:00 +5°C° 0 mm 1 mps 726 mmHg 82%
    16:00 +4°C° 0 mm 1 mps 725 mmHg 84%
    17:00 +3°C° 0 mm 1 mps 725 mmHg 83%
    18:00 +3°C° 0 mm 1 mps 725 mmHg 81%
    19:00 +1°C° 0 mm 2 mps 725 mmHg 79%
    20:00 +3°C° 0 mm 1 mps 724 mmHg 78%
    21:00 +3°C° 0 mm 1 mps 724 mmHg 77%
    22:00 +3°C° 0 mm 1 mps 724 mmHg 76%
    23:00 +3°C° 0 mm 1 mps 724 mmHg 75%

    19 December, Wednesday

    Time Temperature Precipitation Wind Pressure Humidity
    00:00 +4°C° 0 mm 1 mps 724 mmHg 75%
    01:00 +4°C° 0 mm 1 mps 723 mmHg 74%
    02:00 +4°C° 0.3 mm 1 mps 723 mmHg 76%
    03:00 +4°C° 0.3 mm 1 mps 723 mmHg 78%
    04:00 +3°C° 0.3 mm 2 mps 723 mmHg 80%
    05:00 +4°C° 0.6 mm 1 mps 723 mmHg 83%
    06:00 +4°C° 0.6 mm 1 mps 723 mmHg 85%
    07:00 +5°C° 0.6 mm 1 mps 723 mmHg 87%
    08:00 +5°C° 0.6 mm 1 mps 723 mmHg 89%
    09:00 +5°C° 0.6 mm 1 mps 724 mmHg 90%
    10:00 +5°C° 0.6 mm 1 mps 724 mmHg 91%
    11:00 +5°C° 0.5 mm 1 mps 723 mmHg 91%
    12:00 +6°C° 0.5 mm 1 mps 723 mmHg 92%
    13:00 +6°C° 0.5 mm 1 mps 723 mmHg 92%
    14:00 +6°C° 0.3 mm 1 mps 723 mmHg 93%
    15:00 +6°C° 0.3 mm 1 mps 723 mmHg 94%
    16:00 +5°C° 0.3 mm 1 mps 723 mmHg 94%
    17:00 +5°C° 0.2 mm 1 mps 723 mmHg 95%
    18:00 +5°C° 0.2 mm 1 mps 723 mmHg 95%
    19:00 +4°C° 0.2 mm 1 mps 723 mmHg 95%
    20:00 +4°C° 0.1 mm 1 mps 724 mmHg 95%
    21:00 +4°C° 0.1 mm 1 mps 724 mmHg 95%
    22:00 +4°C° 0.1 mm 1 mps 724 mmHg 95%
    23:00 +4°C° 0 mm 1 mps 723 mmHg 95%

    20 December, Thursday

    Time Temperature Precipitation Wind Pressure Humidity
    00:00 +3°C° 0 mm 1 mps 723 mmHg 94%
    01:00 +3°C° 0 mm 1 mps 723 mmHg 94%
    02:00 +3°C° 0 mm 1 mps 723 mmHg 93%
    03:00 +2°C° 0 mm 1 mps 723 mmHg 93%
    04:00 +2°C° 0 mm 1 mps 723 mmHg 92%
    05:00 +2°C° 0 mm 1 mps 723 mmHg 92%
    06:00 +1°C° 0 mm 2 mps 722 mmHg 91%
    07:00 +1°C° 0 mm 2 mps 722 mmHg 91%
    08:00 +2°C° 0.1 mm 2 mps 722 mmHg 89%
    09:00 +2°C° 0.1 mm 2 mps 722 mmHg 87%
    10:00 +3°C° 0.1 mm 2 mps 722 mmHg 85%
    11:00 +4°C° 0.1 mm 2 mps 722 mmHg 83%
    12:00 +5°C° 0.1 mm 2 mps 721 mmHg 82%
    13:00 +6°C° 0.1 mm 2 mps 721 mmHg 80%
    14:00 +6°C° 0.2 mm 2 mps 721 mmHg 82%
    15:00 +5°C° 0.2 mm 2 mps 720 mmHg 85%
    16:00 +4°C° 0.2 mm 2 mps 720 mmHg 87%
    17:00 +4°C° 0 mm 2 mps 720 mmHg 88%
    18:00 +3°C° 0 mm 2 mps 720 mmHg 88%
    19:00 +4°C° 0 mm 1 mps 720 mmHg 89%
    20:00 +3°C° 0.3 mm 2 mps 720 mmHg 89%
    21:00 +3°C° 0.3 mm 2 mps 720 mmHg 90%
    22:00 +3°C° 0.3 mm 2 mps 720 mmHg 90%
    23:00 +3°C° 0.2 mm 2 mps 719 mmHg 90%
    Show more